PBO Station Position Time Series. Reference Frame : NAM14
Format Version,1.1.0
4-character ID,GUAX
Station name,Isla_Guadalupe
Begin Date, 2001-01-19
End Date, 2019-10-07
Release Date, 2019-10-08
Reference position, 28.8840596133 North Latitude, -118.2896847523 East Longitude, 40.47868 meters elevation,
Date, North (mm), East (mm), Vertical (mm), North Std. Deviation (mm), East Std. Deviation (mm),              Vertical Std. Deviation (mm), Quality,
2001-01-19,0.00, 0.00, -12.57, 7.04, 6.51, 33.19, repro,
2001-01-20,-0.58, 1.14, 0.00, 2.15, 2.13, 9.63, repro,
2001-01-21,-2.41, -0.78, -1.18, 2.77, 2.77, 12.35, repro,
2001-01-22,-2.70, 1.00, 7.81, 2.57, 2.69, 11.41, repro,
2001-01-23,-3.18, 1.10, 12.75, 3.34, 2.96, 14.19, repro,
2001-02-01,-3.91, 0.98, 15.18, 2.69, 2.67, 11.62, repro,
2001-02-02,0.62, 1.33, 4.03, 2.65, 2.67, 11.56, repro,
2001-02-03,0.58, 1.78, -4.84, 2.68, 2.67, 11.69, repro,
2001-02-04,-0.49, 0.15, 0.45, 2.67, 2.66, 11.61, repro,
2001-02-05,0.06, 1.09, 2.72, 2.84, 2.88, 12.09, repro,
2001-02-06,1.00, 1.59, -6.70, 2.84, 2.87, 12.05, repro,
2001-02-07,1.57, -1.02, 1.87, 2.64, 2.65, 11.61, repro,
2001-02-08,-0.83, -0.78, 20.43, 2.82, 2.90, 12.15, repro,
2001-02-09,1.22, 1.45, 9.30, 2.71, 2.65, 11.77, repro,
2001-02-10,0.83, 2.52, 8.47, 2.69, 2.65, 11.74, repro,
2001-02-11,-1.03, 3.76, 11.57, 2.89, 2.88, 12.17, repro,
2001-02-12,0.65, 2.20, 15.10, 2.82, 2.85, 11.92, repro,
2001-02-13,-2.37, -0.17, 13.29, 2.62, 2.60, 11.44, repro,
2001-02-14,-1.70, 1.68, 15.39, 2.80, 2.85, 11.70, repro,
2001-02-15,0.79, 4.48, 4.01, 2.81, 2.83, 11.83, repro,
2001-02-17,11.98, -111.25, 12.93, 118.62, 490.42, 1008.17, repro,
2001-05-16,-8.94, 32.03, -9.71, 21.31, 27.24, 173.71, repro,
2001-05-17,-7.77, 7.69, -4.92, 6.04, 6.61, 28.97, repro,
2001-05-18,-1.97, 3.14, 15.66, 2.05, 1.98, 8.48, repro,
2001-05-19,-0.58, -1.15, 26.71, 3.42, 3.49, 16.53, repro,
2001-05-20,-0.30, 1.51, 15.71, 2.19, 2.06, 8.95, repro,
2001-05-22,1.37, 2.38, 16.76, 3.30, 3.46, 14.35, repro,
2001-05-23,-1.34, 2.39, 24.36, 2.18, 2.11, 9.33, repro,
2001-05-24,2.50, 1.06, 15.31, 3.92, 4.08, 16.87, repro,
2001-05-30,-0.43, 0.42, 23.59, 2.71, 2.57, 11.27, repro,
2001-05-31,0.98, 1.71, 23.18, 4.91, 4.25, 18.91, repro,
2001-06-01,0.70, 0.28, 21.34, 1.93, 1.79, 8.19, repro,
2001-06-02,1.03, 0.64, 20.73, 1.89, 1.87, 8.03, repro,
2001-06-04,-1.78, 1.51, 19.65, 1.98, 1.89, 8.28, repro,
2001-06-05,-2.95, 2.20, 18.46, 3.15, 2.96, 13.28, repro,
2002-01-17,-4.10, 5.65, 1.26, 3.71, 4.05, 16.13, repro,
2002-01-18,-1.55, -1.06, 9.77, 1.87, 1.87, 7.90, repro,
2002-01-19,-0.78, 1.61, 11.03, 1.88, 1.86, 7.84, repro,
2002-01-20,-1.65, -0.27, 11.64, 1.86, 1.79, 7.66, repro,
2002-01-21,-0.52, -0.73, 8.89, 1.88, 1.84, 7.76, repro,
2002-01-22,-3.25, 0.96, 6.64, 2.09, 2.10, 8.87, repro,
2002-01-23,-1.89, 1.91, 4.75, 1.88, 1.85, 7.77, repro,
2002-01-24,1.56, 1.43, 5.80, 1.90, 1.89, 7.97, repro,
2002-01-25,-1.35, 0.49, 8.74, 2.05, 2.02, 8.75, repro,
2002-01-26,-2.17, 0.87, 6.63, 1.85, 1.79, 7.67, repro,
2002-01-27,-3.25, 1.84, 5.80, 1.85, 1.77, 7.60, repro,
2002-01-28,-1.36, -1.31, 10.02, 1.88, 1.84, 7.80, repro,
2002-01-29,-1.38, 0.76, 3.76, 1.89, 1.90, 7.96, repro,
2002-01-30,-0.79, 1.67, -0.90, 1.95, 1.93, 8.07, repro,
2002-01-31,-1.30, -0.06, 4.22, 2.01, 1.97, 8.57, repro,
2002-02-01,-1.55, -1.33, 3.38, 2.09, 2.08, 8.69, repro,
2002-02-02,-1.88, -0.64, 3.82, 2.19, 2.07, 9.16, repro,
2002-02-03,0.07, 1.01, 12.87, 2.03, 1.91, 8.48, repro,
2002-02-04,-0.80, 0.83, 3.42, 2.10, 2.00, 8.77, repro,
2002-02-05,-2.82, -0.12, 9.13, 1.96, 2.06, 8.48, repro,
2002-02-06,-1.17, 0.35, 14.90, 2.05, 2.13, 8.84, repro,
2002-02-07,-1.35, 1.46, 10.56, 2.05, 2.06, 8.68, repro,
2002-02-08,-0.78, 0.29, 11.33, 2.16, 2.14, 9.12, repro,
2002-02-09,-1.97, 0.15, 7.66, 1.93, 1.88, 8.08, repro,
2002-02-10,0.06, 0.29, -0.05, 2.11, 2.22, 8.94, repro,
2002-02-11,1.00, 0.89, 4.73, 2.09, 1.94, 9.06, repro,
2002-02-12,-0.42, 0.13, 9.87, 1.97, 1.98, 8.33, repro,
2002-02-13,-0.46, -0.15, 13.86, 1.92, 1.92, 8.21, repro,
2002-02-14,-1.80, 2.81, 9.22, 2.07, 2.20, 8.76, repro,
2002-02-15,0.39, 1.39, 14.32, 2.19, 2.31, 9.08, repro,
2002-02-16,-0.49, 0.84, 14.63, 2.46, 2.40, 10.44, repro,
2002-02-17,-2.33, 4.19, 4.00, 2.34, 2.34, 9.86, repro,
2002-02-18,-0.17, -1.10, 16.55, 2.21, 2.28, 9.34, repro,
2002-02-19,-0.83, 0.93, 27.15, 3.47, 3.78, 14.89, repro,
2002-02-20,1.67, 3.70, 15.52, 3.02, 3.31, 13.07, repro,
2002-02-21,-2.01, 1.05, 9.96, 2.07, 2.04, 8.71, repro,
2002-02-22,-1.65, 0.28, 6.57, 2.02, 1.99, 8.48, repro,
2002-02-23,-2.41, 1.61, 12.04, 1.94, 1.92, 8.25, repro,
2002-02-24,-0.37, 4.28, 15.34, 2.66, 2.62, 11.40, repro,
2002-02-25,-0.77, 3.32, 19.75, 2.10, 2.07, 8.94, repro,
2002-02-26,-1.78, 1.58, 6.81, 2.32, 2.33, 9.73, repro,
2002-02-27,-1.15, 3.13, 12.14, 2.94, 2.92, 12.28, repro,
2002-02-28,-3.58, 1.22, 23.56, 2.25, 2.27, 9.82, repro,
2002-03-01,-3.83, 2.35, 19.89, 2.31, 2.37, 10.09, repro,
2002-03-02,-2.29, 1.61, 15.49, 2.42, 2.43, 10.63, repro,
2002-03-03,-1.09, 0.65, 9.90, 1.98, 2.11, 8.41, repro,
2002-03-04,-2.34, 2.09, 13.50, 1.84, 1.81, 7.83, repro,
2002-03-05,-2.67, 1.27, 5.05, 1.87, 1.86, 7.91, repro,
2002-03-06,-2.99, 1.50, 10.19, 1.90, 1.94, 8.06, repro,
2002-03-07,-1.49, 1.51, 9.51, 1.88, 1.88, 8.08, repro,
2002-03-08,-1.07, 1.51, 12.31, 1.86, 1.86, 7.88, repro,
2002-03-09,-2.58, 0.45, 7.92, 1.88, 1.87, 7.98, repro,
2002-03-10,-1.29, 1.04, 10.62, 1.83, 1.78, 7.73, repro,
2002-03-11,-2.34, -0.16, 10.39, 1.89, 1.92, 8.11, repro,
2002-03-12,-3.35, 0.67, 11.01, 1.87, 1.88, 8.11, repro,
2002-03-13,-2.11, -3.74, 18.17, 1.86, 1.86, 7.99, repro,
2002-03-14,-1.56, -0.72, 18.58, 1.84, 1.78, 7.81, repro,
2002-03-15,-1.87, 1.71, 16.27, 1.87, 1.85, 7.97, repro,
2002-03-16,-1.67, 1.81, -0.07, 1.85, 1.78, 7.81, repro,
2002-03-17,-1.10, 0.86, 11.10, 1.87, 1.85, 7.96, repro,
2002-03-18,-0.68, 2.04, 7.34, 1.94, 2.01, 8.35, repro,
2002-03-19,-1.56, 0.60, 8.54, 2.09, 2.04, 8.91, repro,
2002-03-20,-2.27, 0.75, 8.66, 1.98, 2.02, 8.43, repro,
2002-03-21,-1.96, 0.94, -0.34, 1.88, 1.85, 8.00, repro,
2002-03-22,-3.20, 0.55, 6.88, 1.87, 1.85, 8.09, repro,
2002-03-23,-1.89, 0.63, 6.01, 1.95, 1.89, 8.27, repro,
2002-03-24,-2.59, 0.32, 2.88, 2.04, 2.06, 8.75, repro,
2002-03-25,-1.79, 0.80, 7.25, 1.91, 1.89, 8.19, repro,
2002-03-26,-1.33, 1.68, 2.91, 1.93, 1.90, 8.20, repro,
2002-03-27,-0.74, 0.77, 7.94, 1.92, 1.91, 8.14, repro,
2002-03-28,-1.43, 0.80, 11.88, 1.96, 1.95, 8.33, repro,
2002-03-29,-1.28, 1.52, -1.59, 1.93, 1.91, 8.20, repro,
2002-03-30,-2.11, 2.12, 2.46, 1.93, 1.82, 8.19, repro,
2002-03-31,-2.47, 0.77, 11.51, 1.95, 1.89, 8.33, repro,
2002-04-01,-2.79, 1.56, 8.59, 2.01, 2.06, 8.54, repro,
2002-04-02,-1.74, 1.37, 8.71, 1.87, 1.78, 8.00, repro,
2002-04-03,-1.99, 1.53, 11.38, 2.22, 2.12, 9.78, repro,
2002-04-04,-1.44, 0.68, 7.36, 1.91, 1.85, 8.15, repro,
2002-04-05,-2.44, 1.29, 5.02, 2.02, 1.93, 8.46, repro,
2002-04-06,-1.65, 0.76, 6.16, 2.18, 2.01, 9.59, repro,
2002-04-07,-1.87, 2.33, -0.88, 2.01, 1.91, 8.72, repro,
2002-04-08,-2.74, 2.25, 6.96, 2.01, 2.01, 8.50, repro,
2002-04-09,-1.65, 1.95, 6.60, 2.03, 2.00, 8.43, repro,
2002-04-10,-1.48, 1.60, 16.16, 1.95, 1.93, 8.30, repro,
2002-04-11,-1.28, 1.68, 7.63, 2.05, 1.98, 8.67, repro,
2002-04-12,-0.89, 2.55, 10.98, 2.22, 2.11, 9.67, repro,
2002-04-13,-1.24, 1.58, 10.16, 1.99, 1.97, 8.47, repro,
2002-04-14,-0.62, 2.46, 16.74, 2.27, 2.23, 10.08, repro,
2002-04-15,-0.62, 1.63, 19.33, 2.05, 2.03, 8.79, repro,
2002-04-16,0.69, 2.10, 16.65, 2.02, 1.93, 8.67, repro,
2002-04-17,-1.13, 2.15, 12.56, 2.26, 2.24, 9.95, repro,
2002-04-18,-2.99, 1.90, 11.93, 1.95, 1.89, 8.31, repro,
2002-04-19,-2.92, 3.39, 4.40, 1.94, 1.93, 8.37, repro,
2002-04-20,-1.46, 2.13, 12.80, 1.97, 1.98, 8.51, repro,
2002-04-21,-1.53, 1.78, 14.98, 1.87, 1.79, 8.11, repro,
2002-04-22,-2.51, 2.42, 15.30, 1.91, 1.84, 8.18, repro,
2002-04-23,-2.56, 3.10, 19.07, 1.89, 1.81, 8.28, repro,
2002-04-24,-2.95, 1.50, 15.76, 1.90, 1.81, 8.23, repro,
2002-04-25,-1.48, 1.98, 10.25, 1.87, 1.81, 8.17, repro,
2002-04-26,-0.22, 1.33, 10.92, 1.92, 1.82, 8.44, repro,
2002-04-27,-0.77, 1.37, 9.26, 1.86, 1.76, 8.01, repro,
2002-04-28,-0.96, 2.12, 12.32, 1.87, 1.77, 7.98, repro,
2002-04-29,-2.39, 2.66, 8.65, 1.91, 1.80, 8.07, repro,
2002-04-30,-1.85, 2.42, 6.15, 1.93, 1.77, 8.31, repro,
2002-05-01,-0.62, 1.45, 12.92, 1.94, 1.77, 8.32, repro,
2002-05-02,-0.89, 2.39, 10.07, 1.91, 1.81, 8.03, repro,
2002-05-03,-0.65, 1.08, 18.43, 1.89, 1.79, 8.01, repro,
2002-05-04,-1.85, 1.74, 10.57, 1.86, 1.72, 7.82, repro,
2002-05-05,-1.99, 1.75, 12.69, 1.80, 1.68, 7.85, repro,
2002-05-06,-2.67, 0.18, 18.36, 1.92, 1.83, 8.24, repro,
2002-05-07,-2.75, 1.76, 14.41, 1.86, 1.73, 7.97, repro,
2002-05-08,-2.84, 0.97, 20.04, 1.81, 1.68, 7.92, repro,
2002-05-09,-1.76, 1.53, 11.83, 1.83, 1.70, 8.01, repro,
2002-05-10,-3.52, 0.68, 17.81, 1.82, 1.68, 7.95, repro,
2002-05-11,-1.77, 0.46, 15.29, 1.84, 1.72, 8.12, repro,
2002-05-12,-2.64, 1.70, 11.83, 1.87, 1.74, 8.16, repro,
2002-05-13,-2.04, 0.57, 11.52, 1.92, 1.76, 8.43, repro,
2002-05-14,-1.86, -0.78, 17.72, 1.82, 1.65, 7.83, repro,
2002-05-15,-2.50, 1.41, 9.61, 1.85, 1.72, 8.03, repro,
2002-05-16,-2.24, 1.83, 18.36, 1.82, 1.68, 7.93, repro,
2002-05-17,-2.11, 0.63, 13.14, 1.92, 1.71, 8.49, repro,
2002-05-18,-2.53, 1.71, 16.19, 1.93, 1.76, 8.51, repro,
2002-05-19,-2.76, -0.26, 21.39, 1.88, 1.72, 8.33, repro,
2002-05-20,-0.13, 1.94, 19.99, 1.82, 1.67, 7.91, repro,
2002-05-21,-0.23, -0.19, 16.05, 1.83, 1.67, 7.89, repro,
2002-05-22,-2.86, -0.90, 20.26, 1.89, 1.70, 8.31, repro,
2002-05-23,-2.22, -0.72, 23.57, 1.85, 1.72, 8.04, repro,
2002-05-24,-1.56, 0.09, 22.55, 2.13, 2.05, 9.44, repro,
2002-05-25,-1.01, 1.39, 12.88, 1.89, 1.81, 8.35, repro,
2002-05-26,-0.28, 1.30, 22.73, 1.87, 1.77, 8.22, repro,
2002-05-27,-1.57, 1.31, 20.96, 1.83, 1.68, 7.95, repro,
2002-05-28,-0.61, 1.08, 20.79, 1.93, 1.81, 8.59, repro,
2002-05-29,-1.63, 1.17, 26.50, 1.89, 1.71, 8.32, repro,
2002-05-30,-0.24, 1.01, 21.83, 1.93, 1.80, 8.52, repro,
2002-05-31,-0.62, 0.92, 27.90, 1.96, 1.78, 8.46, repro,
2002-06-01,-1.66, 1.65, 27.51, 1.98, 1.85, 8.60, repro,
2002-06-02,-3.15, 0.02, 19.29, 1.90, 1.75, 8.38, repro,
2002-06-03,-3.01, -0.31, 18.09, 1.90, 1.74, 8.34, repro,
2002-06-04,-3.24, 0.24, 23.52, 1.95, 1.84, 8.75, repro,
2002-06-05,-0.49, 0.38, 16.39, 1.95, 1.79, 8.61, repro,
2002-06-06,-1.51, 1.02, 22.84, 1.88, 1.69, 8.04, repro,
2002-06-07,-2.14, -0.50, 20.82, 1.87, 1.79, 8.22, repro,
2002-06-08,-2.39, 1.70, 20.72, 1.85, 1.72, 8.06, repro,
2002-06-09,-2.16, 0.45, 25.10, 1.89, 1.80, 8.15, repro,
2002-06-10,-1.20, 0.53, 18.85, 1.86, 1.74, 7.94, repro,
2002-06-11,-1.52, -0.26, 26.96, 1.86, 1.74, 7.96, repro,
2002-06-12,-0.88, -0.47, 23.80, 1.89, 1.80, 8.11, repro,
2002-06-13,-2.21, 0.26, 26.33, 1.95, 1.90, 8.45, repro,
2002-06-14,-2.06, -0.35, 31.07, 2.05, 2.10, 8.83, repro,
2002-06-15,-2.41, 0.57, 22.44, 1.87, 1.79, 8.05, repro,
2002-06-16,-1.22, 0.67, 24.20, 1.85, 1.75, 7.96, repro,
2002-06-17,-2.42, -0.48, 22.29, 1.86, 1.74, 7.99, repro,
2002-06-18,-4.97, 1.52, 17.06, 1.88, 1.77, 8.09, repro,
2002-06-19,-3.12, -3.61, 31.41, 1.89, 1.84, 8.21, repro,
2002-06-20,-2.44, -0.87, 20.55, 1.86, 1.75, 8.00, repro,
2002-06-21,-1.43, 0.05, 18.83, 1.92, 1.79, 8.47, repro,
2002-06-22,-1.98, -0.83, 12.00, 1.85, 1.73, 7.97, repro,
2002-06-23,-2.46, -0.19, 19.47, 1.84, 1.69, 7.90, repro,
2002-06-24,-1.31, -0.19, 21.51, 1.86, 1.73, 8.12, repro,
2002-06-25,-0.95, 0.09, 15.97, 1.83, 1.69, 7.94, repro,
2002-06-26,-1.38, -1.06, 19.92, 1.94, 1.94, 8.55, repro,
2002-06-27,-4.56, 2.12, 14.37, 1.97, 1.96, 8.70, repro,
2002-06-28,-1.31, -0.89, 20.39, 1.97, 1.94, 8.70, repro,
2002-06-29,-1.94, 1.70, 16.76, 1.91, 1.79, 8.16, repro,
2002-06-30,-0.49, -0.33, 18.83, 1.89, 1.85, 8.22, repro,
2002-07-01,-0.43, 0.84, 20.14, 1.91, 1.82, 8.46, repro,
2002-07-02,-0.11, -1.57, 23.07, 2.25, 2.14, 9.63, repro,
2002-07-03,-2.68, 3.45, 18.80, 1.98, 1.87, 8.44, repro,
2002-07-04,-2.11, 1.24, 21.66, 1.98, 1.85, 8.43, repro,
2002-07-05,-1.48, -0.36, 21.12, 1.90, 1.78, 8.13, repro,
2002-07-06,-2.38, 0.44, 11.98, 1.87, 1.74, 8.07, repro,
2002-07-07,-1.88, -0.15, 19.62, 1.88, 1.72, 8.10, repro,
2002-07-08,-1.91, 0.81, 16.98, 1.90, 1.69, 8.10, repro,
2002-07-09,-2.16, 1.73, 15.56, 2.11, 2.06, 9.18, repro,
2002-07-10,1.35, 1.31, 15.35, 2.01, 1.78, 8.43, repro,
2002-07-11,-0.62, 1.48, 11.70, 1.89, 1.69, 8.05, repro,
2002-07-12,-2.04, 3.94, -3.73, 2.20, 1.90, 9.39, repro,
2002-07-13,-3.28, 2.58, 13.22, 1.85, 1.70, 7.91, repro,
2002-07-14,-3.34, 2.66, 12.45, 1.91, 1.70, 8.14, repro,
2002-07-15,-1.41, 0.28, 14.68, 1.90, 1.77, 8.19, repro,
2002-07-16,0.12, 1.14, 12.87, 1.90, 1.68, 8.07, repro,
2002-07-17,-0.19, 0.94, 15.69, 1.95, 1.76, 8.35, repro,
2002-07-18,-0.94, 1.84, 6.89, 1.98, 1.79, 8.50, repro,
2002-07-19,-2.72, 2.38, 9.24, 1.92, 1.77, 8.21, repro,
2002-07-20,-1.79, 2.73, 7.74, 1.97, 1.73, 8.36, repro,
2002-07-21,-0.12, 0.96, 14.07, 1.89, 1.73, 8.03, repro,
2002-07-22,-1.36, 1.22, 13.40, 1.85, 1.68, 7.90, repro,
2002-07-23,-0.89, 3.57, 7.18, 1.93, 1.77, 8.30, repro,
2002-07-24,-0.41, 1.24, 11.59, 1.98, 1.81, 8.48, repro,
2002-07-25,-2.40, 1.05, 19.51, 1.89, 1.71, 8.04, repro,
2002-07-26,-2.12, 2.84, 10.00, 1.93, 1.77, 8.06, repro,
2002-07-27,-1.84, 3.52, 10.31, 2.02, 1.86, 8.68, repro,
2002-07-28,-1.53, 2.71, 8.61, 1.98, 1.80, 8.43, repro,
2002-07-29,-3.50, 3.91, 2.71, 2.01, 1.84, 8.55, repro,
2002-07-30,-4.80, 2.32, 1.32, 2.25, 2.10, 9.33, repro,
2002-07-31,-1.54, -0.06, 7.37, 2.09, 1.92, 8.86, repro,
2002-08-01,-2.60, 2.91, 1.37, 2.05, 1.80, 8.64, repro,
2002-08-02,-1.98, 0.93, 6.51, 2.02, 1.86, 8.79, repro,
2002-08-03,-1.48, 0.77, -0.63, 2.02, 1.79, 8.55, repro,
2002-08-04,-2.52, 1.64, 7.73, 2.02, 1.84, 8.57, repro,
2002-08-05,-1.79, 3.93, 8.41, 1.99, 1.79, 8.47, repro,
2002-08-06,-2.39, 3.32, 1.50, 1.94, 1.76, 8.32, repro,
2002-08-07,-2.79, 2.39, -1.05, 2.03, 1.83, 8.63, repro,
2002-08-08,-1.37, 0.16, 3.95, 2.09, 1.97, 8.90, repro,
2002-08-09,-2.68, 2.40, 0.40, 2.13, 2.00, 9.21, repro,
2002-08-10,-4.01, 1.25, 0.87, 1.99, 1.83, 8.51, repro,
2002-08-11,-6.56, 3.64, 9.70, 2.01, 1.87, 8.58, repro,
2002-08-12,-0.93, 1.53, 11.10, 2.15, 1.97, 9.24, repro,
2002-08-13,-1.61, 0.43, 9.87, 2.08, 1.92, 8.87, repro,
2002-08-14,-2.05, 2.74, 5.67, 2.12, 1.94, 8.93, repro,
2002-08-15,-0.44, 3.26, 10.46, 2.21, 2.16, 9.38, repro,
2002-08-16,-1.37, 1.88, 10.33, 2.00, 1.92, 8.59, repro,
2002-08-17,-2.91, 4.41, 8.41, 1.88, 1.79, 8.18, repro,
2002-08-18,-2.85, 2.66, 5.03, 1.92, 1.81, 8.32, repro,
2002-08-19,-2.03, 2.29, 10.75, 1.95, 1.84, 8.58, repro,
2002-08-20,-2.19, 2.05, 10.45, 1.93, 1.79, 8.30, repro,
2002-08-21,-1.51, 2.78, 7.74, 1.91, 1.77, 8.21, repro,
2002-08-22,-1.41, 3.00, 9.93, 1.86, 1.69, 7.99, repro,
2002-08-26,-4.02, 4.63, 13.29, 1.85, 1.72, 8.02, repro,
2002-08-27,-5.26, 1.62, 15.41, 2.00, 1.85, 8.69, repro,
2002-08-28,-2.48, 1.57, 5.40, 2.08, 1.95, 8.84, repro,
2002-08-29,-0.83, 0.33, 4.81, 1.92, 1.79, 8.39, repro,
2002-08-30,0.78, -0.28, 7.69, 2.23, 1.97, 9.54, repro,
2002-08-31,-1.24, 1.88, -1.50, 2.02, 1.88, 8.64, repro,
2002-09-01,-2.74, 0.88, 1.97, 1.83, 1.66, 7.95, repro,
2002-09-02,-2.16, 1.68, 2.60, 1.84, 1.69, 7.94, repro,
2002-09-03,-2.41, 2.96, 9.35, 2.54, 2.38, 10.73, repro,
2002-09-04,-3.49, 0.99, 9.63, 2.58, 2.40, 11.21, repro,
2002-09-05,-2.78, 2.17, 14.86, 2.49, 2.41, 10.78, repro,
2002-09-06,-2.21, 0.89, 3.43, 2.39, 2.22, 10.23, repro,
2002-09-07,-1.38, 1.18, 8.69, 1.90, 1.76, 8.19, repro,
2002-09-08,-1.38, -0.55, 13.64, 1.93, 1.81, 8.35, repro,
2002-09-09,-0.30, -0.57, 14.17, 2.14, 2.14, 9.34, repro,
2002-09-10,-4.60, 1.70, -2.46, 2.81, 2.72, 12.69, repro,
2002-09-11,-6.49, 0.15, 14.58, 3.53, 3.53, 16.24, repro,
2002-09-14,-3.09, 1.72, 12.89, 1.91, 1.77, 8.22, repro,
2002-09-21,-1.06, 1.08, 14.91, 2.05, 1.95, 8.88, repro,
2002-09-28,1.24, 0.07, 16.63, 1.97, 1.84, 8.60, repro,
2002-10-05,0.01, 0.53, 12.42, 1.96, 1.78, 8.43, repro,
2002-10-12,0.48, -0.93, 5.43, 2.06, 1.92, 8.92, repro,
2002-10-18,-1.02, 0.32, 20.34, 2.37, 2.09, 9.89, repro,
2002-10-19,0.42, 1.44, 21.53, 2.17, 2.02, 9.23, repro,
2002-10-26,-0.85, 2.17, 15.73, 1.96, 1.84, 8.43, repro,
2002-10-30,-2.50, 4.02, 15.86, 2.00, 1.89, 8.62, repro,
2002-11-02,-2.04, 2.77, 21.37, 2.13, 2.07, 9.26, repro,
2002-11-09,-0.32, 3.95, 7.21, 2.09, 2.03, 9.33, repro,
2002-11-16,0.38, 1.67, 10.42, 2.04, 1.94, 8.93, repro,
2002-11-23,0.04, -1.67, 3.38, 2.12, 1.99, 9.09, repro,
2002-11-30,-0.24, 1.76, 5.40, 1.97, 1.85, 8.43, repro,
2002-12-03,-1.03, 2.75, -3.72, 2.24, 2.13, 9.49, repro,
2002-12-07,-1.41, 0.46, -3.15, 1.98, 1.80, 8.46, repro,
2002-12-14,-0.44, 0.51, 3.59, 1.96, 1.87, 8.44, repro,
2002-12-20,-1.76, 0.93, 6.25, 2.30, 2.12, 9.55, repro,
2002-12-21,-1.11, -0.21, 7.15, 2.11, 1.99, 9.04, repro,
2002-12-28,-2.18, -0.90, 8.20, 1.91, 1.84, 8.27, repro,
2003-01-01,-1.55, 0.10, -0.55, 2.12, 2.04, 9.05, repro,
2003-01-02,-2.16, 0.15, 0.67, 2.10, 2.04, 9.00, repro,
2003-01-03,-1.20, -0.52, 0.87, 2.22, 2.21, 9.84, repro,
2003-01-04,-3.27, 0.17, 4.23, 2.33, 2.33, 9.75, repro,
2003-01-06,-3.28, -0.43, 1.87, 2.18, 2.25, 10.03, repro,
2003-01-07,-0.98, 1.31, -13.09, 2.23, 2.25, 10.21, repro,
2003-01-08,-1.03, -0.31, 10.84, 2.10, 2.05, 9.28, repro,
2003-01-09,-2.84, 0.10, 3.16, 2.21, 2.09, 9.69, repro,
2003-01-10,-1.57, -0.38, 3.42, 2.05, 2.06, 8.85, repro,
2003-01-11,-3.39, 0.28, 1.68, 2.01, 1.99, 8.53, repro,
2003-01-12,-1.04, 1.21, 12.19, 1.94, 1.84, 8.28, repro,
2003-01-13,-0.65, 0.45, 10.42, 2.03, 2.00, 8.69, repro,
2003-01-14,-1.43, 0.46, 5.79, 2.12, 2.11, 8.99, repro,
2003-01-15,-1.15, -0.76, 10.25, 2.28, 2.30, 9.50, repro,
2003-01-16,-1.38, 0.52, 5.05, 2.29, 2.16, 9.57, repro,
2003-01-17,-1.39, 0.85, -1.84, 2.22, 2.07, 9.31, repro,
2003-01-18,0.47, 0.26, 14.84, 1.99, 1.88, 8.60, repro,
2003-01-19,-1.40, 0.22, 15.44, 2.00, 1.95, 8.47, repro,
2003-01-20,-1.82, -1.63, 16.38, 1.99, 1.88, 8.68, repro,
2003-01-21,-1.57, -1.61, 11.55, 1.93, 1.84, 8.23, repro,
2003-01-22,-0.46, -1.44, 22.46, 2.19, 2.15, 9.67, repro,
2003-01-23,-1.01, 0.80, 14.67, 2.32, 2.15, 10.45, repro,
2003-01-24,-3.83, 0.22, 11.71, 2.14, 1.92, 9.03, repro,
2003-01-25,-2.49, 0.29, 11.97, 2.11, 2.10, 9.02, repro,
2003-01-26,-1.76, 0.87, 8.41, 2.08, 2.03, 8.89, repro,
2003-01-27,-0.84, 0.87, 14.08, 2.41, 2.40, 10.36, repro,
2003-01-28,-1.71, -0.45, 15.74, 2.59, 2.51, 11.61, repro,
2003-01-29,-2.95, 1.99, 9.33, 2.16, 1.97, 9.24, repro,
2003-01-30,-1.77, -0.99, 21.52, 2.24, 1.99, 9.45, repro,
2003-01-31,-1.19, 0.31, 12.74, 2.14, 2.00, 9.25, repro,
2003-02-01,-2.59, 1.59, 16.55, 2.24, 2.28, 9.47, repro,
2003-02-03,-1.79, 1.59, 6.02, 2.14, 2.00, 9.18, repro,
2003-02-04,-1.40, 2.53, 24.68, 2.17, 2.13, 9.36, repro,
2003-02-05,-2.00, -0.22, 20.34, 2.27, 2.18, 9.86, repro,
2003-02-06,-0.56, 2.33, 10.84, 2.40, 2.26, 10.10, repro,
2003-02-07,-1.16, -0.40, 21.36, 2.60, 2.51, 10.68, repro,
2003-02-08,-0.72, 3.43, 13.71, 2.15, 2.15, 9.18, repro,
2003-02-10,-1.92, 2.86, 16.44, 2.64, 2.69, 11.15, repro,
2003-02-11,-2.01, -2.39, 15.16, 2.21, 2.14, 9.49, repro,
2003-02-12,0.32, 1.79, 15.28, 2.22, 2.10, 9.79, repro,
2003-02-13,2.95, -1.82, 23.10, 2.38, 2.31, 9.80, repro,
2003-02-14,-1.52, -1.27, 19.55, 2.10, 2.00, 8.97, repro,
2003-02-15,-1.58, 0.92, 17.39, 2.53, 2.44, 10.47, repro,
2003-02-16,-0.95, 1.40, 29.09, 2.47, 2.34, 10.53, repro,
2003-02-17,-4.08, 0.35, 21.23, 2.59, 2.46, 11.02, repro,
2003-02-18,-1.22, 0.83, 7.79, 2.30, 2.20, 10.38, repro,
2003-02-19,-2.90, 0.41, 13.95, 1.99, 1.88, 8.48, repro,
2003-02-20,-1.12, 3.49, 16.85, 2.31, 2.14, 9.37, repro,
2003-02-21,-4.26, 1.41, 18.17, 2.51, 2.25, 10.57, repro,
2003-04-17,-1.87, 3.57, 5.88, 2.27, 2.03, 9.53, repro,
2003-04-18,-2.37, -0.84, 11.42, 2.33, 2.06, 9.83, repro,
2003-04-27,-1.69, 1.19, 29.86, 4.72, 4.57, 20.57, repro,
2003-04-28,-1.30, 2.46, 19.82, 4.53, 4.48, 20.73, repro,
2003-04-29,3.98, 2.33, 32.27, 4.51, 4.42, 19.70, repro,
2003-04-30,0.77, 1.90, 22.41, 4.82, 4.26, 20.22, repro,
2003-05-01,1.05, 2.49, 18.60, 4.79, 4.37, 20.64, repro,
2003-05-02,-0.31, 1.69, 21.14, 4.44, 4.20, 19.13, repro,
2003-05-03,1.70, 3.04, 36.85, 4.56, 4.45, 20.27, repro,
2003-05-04,0.13, 6.39, 12.89, 4.69, 4.45, 20.21, repro,
2003-05-05,1.05, 3.11, 9.06, 4.47, 4.26, 19.18, repro,
2003-05-06,-0.40, 3.15, 14.36, 4.75, 4.75, 22.04, repro,
2003-05-07,-1.73, 3.93, 25.68, 4.47, 4.28, 19.29, repro,
2003-05-08,1.25, 0.54, 30.17, 4.92, 4.74, 20.81, repro,
2003-05-09,-1.21, 1.17, 26.85, 4.42, 4.26, 19.10, repro,
2003-05-10,-0.39, 0.35, 30.71, 4.45, 4.26, 19.06, repro,
2003-05-11,0.16, 2.49, 25.88, 4.55, 4.45, 20.44, repro,
2003-05-12,-2.09, -0.53, 36.22, 4.40, 4.19, 19.10, repro,
2003-05-13,1.80, 3.31, 37.55, 4.79, 4.59, 21.12, repro,
2003-05-14,2.20, 0.28, 27.81, 4.39, 4.21, 18.84, repro,
2003-05-15,-2.24, 8.50, 19.36, 4.69, 4.47, 19.27, repro,
2003-05-16,-2.15, 4.15, 13.88, 4.54, 4.38, 20.04, repro,
2003-05-17,-5.28, 5.24, 20.50, 4.76, 4.66, 20.68, repro,
2003-05-18,-1.11, 2.50, 2.64, 4.63, 4.32, 20.02, repro,
2003-05-19,-4.43, 4.91, 8.58, 4.41, 4.16, 18.63, repro,
2003-05-20,0.57, 2.19, 22.32, 4.50, 4.39, 19.19, repro,
2003-05-21,-2.33, 2.48, 17.27, 4.53, 4.40, 19.61, repro,
2003-05-22,0.24, 4.00, 23.29, 4.66, 4.44, 19.59, repro,
2003-05-23,0.39, 4.43, 11.88, 4.73, 4.28, 19.73, repro,
2003-05-24,-1.15, 1.53, 6.22, 4.93, 5.11, 22.36, repro,
2003-05-25,-2.64, 2.94, 15.42, 4.73, 4.69, 20.90, repro,
2003-05-26,0.82, 1.46, 9.82, 4.51, 4.23, 18.96, repro,
2003-05-27,-3.04, 2.63, 16.55, 4.84, 4.61, 19.35, repro,
2003-05-28,-1.71, 0.83, -0.13, 5.04, 4.74, 20.75, repro,
2003-05-29,-2.11, 2.98, 17.67, 5.28, 5.20, 22.27, repro,
2003-05-30,4.60, 4.80, -32.62, 10.23, 14.34, 47.60, repro,
2003-05-31,1.20, -0.37, 12.09, 4.71, 4.33, 19.80, repro,
2003-06-01,-2.71, 1.90, 16.19, 4.64, 4.35, 19.24, repro,
2003-06-02,-0.86, -0.92, 13.76, 4.82, 4.45, 19.53, repro,
2003-06-03,-0.13, 0.98, 19.28, 5.00, 4.53, 20.30, repro,
2003-06-04,-0.11, 3.98, 8.47, 4.99, 4.58, 20.93, repro,
2003-06-05,1.73, 1.76, 21.46, 4.93, 4.35, 20.42, repro,
2003-06-06,-0.31, 3.09, 16.13, 5.22, 4.48, 20.65, repro,
2003-06-07,-0.48, 1.99, 16.00, 4.90, 4.43, 21.04, repro,
2003-06-08,-1.13, 0.26, 27.06, 4.90, 4.49, 20.49, repro,
2003-06-09,-3.20, 2.58, 30.03, 5.15, 4.35, 20.66, repro,
2003-06-10,-1.44, -0.59, 18.35, 5.02, 4.42, 20.89, repro,
2003-06-11,-2.97, 2.56, 9.80, 5.14, 4.48, 21.11, repro,
2003-06-12,-0.83, -2.13, 8.01, 5.09, 4.38, 20.97, repro,
2003-06-13,-2.76, 1.73, 5.05, 5.05, 4.57, 20.94, repro,
2003-06-14,-6.05, 2.45, 8.14, 5.18, 4.43, 21.02, repro,
2003-06-15,-5.91, 2.33, 2.96, 4.92, 4.19, 19.44, repro,
2003-06-16,-3.56, 0.06, 17.89, 5.07, 4.31, 20.22, repro,
2003-06-17,-2.00, 0.92, 12.42, 5.08, 4.70, 22.28, repro,
2003-06-18,-3.48, 2.78, 25.36, 5.05, 4.46, 21.02, repro,
2003-06-19,-6.33, 0.71, 27.10, 4.92, 4.37, 20.22, repro,
2003-06-20,-5.64, 2.06, 29.38, 5.00, 4.36, 20.99, repro,
2003-06-21,-5.01, 3.24, 10.27, 5.43, 4.56, 21.28, repro,
2003-06-22,-1.72, 2.74, 16.12, 5.09, 4.45, 21.61, repro,
2003-06-23,-5.20, -1.90, 30.31, 5.16, 4.75, 22.13, repro,
2003-06-24,-0.98, -0.00, 22.41, 5.02, 4.32, 20.38, repro,
2003-06-25,-1.40, -0.80, 26.62, 5.07, 4.52, 21.61, repro,
2003-06-26,-2.69, 0.60, 12.55, 5.19, 4.65, 21.94, repro,
2003-06-27,-8.88, -1.30, 15.04, 5.44, 5.11, 25.26, repro,
2003-06-28,-4.98, 5.31, 8.45, 5.12, 4.73, 22.12, repro,
2003-06-29,-4.86, 2.05, 17.60, 5.02, 4.51, 21.86, repro,
2003-06-30,-7.43, 1.16, 20.87, 5.19, 4.85, 22.94, repro,
2003-07-01,-1.87, -0.80, 15.20, 5.26, 4.72, 22.64, repro,
2003-07-02,-2.56, 4.88, -3.79, 5.28, 4.74, 23.68, repro,
2003-07-03,-5.74, 1.88, 6.98, 5.35, 5.22, 23.47, repro,
2003-07-04,-4.60, 3.04, 0.61, 5.20, 5.22, 23.55, repro,
2003-07-05,-3.65, 3.16, 7.44, 5.22, 4.73, 22.89, repro,
2003-07-06,-4.03, 0.36, 32.33, 5.22, 4.82, 22.97, repro,
2003-07-07,-1.75, 2.65, 6.02, 5.40, 5.17, 25.41, repro,
2003-07-08,-4.65, -0.33, 9.67, 5.28, 4.76, 22.53, repro,
2003-07-09,-6.15, 1.18, 16.26, 5.30, 4.93, 24.31, repro,
2003-07-10,-1.57, 4.20, 26.23, 5.32, 4.91, 23.34, repro,
2003-07-11,-3.59, -1.76, 6.97, 5.13, 4.58, 21.34, repro,
2003-07-12,-4.05, -3.42, 13.97, 5.30, 4.84, 23.34, repro,
2003-07-13,-1.80, -1.18, 16.69, 5.20, 4.39, 20.92, repro,